Regional Weather Roundup
Issued by NWS

Home | Current Version | Previous Version | Text Only | Print | Product List | Glossary On
Versions: 1 2 3 4 5 6 7 8 9 10 11 12 13 14 15 16 17 18 19 20 21 22 23 24 25 26 27 28 29 30 31 32 33 34 35 36 37 38 39 40 41 42 43 44
000
ASUS42 KKEY 280810
RWRKEY

FLORIDA REGIONAL WEATHER ROUNDUP FOR THE FLORIDA KEYS
NATIONAL WEATHER SERVICE KEY WEST FLORIDA
300 AM EST SUN DEC 28 2014

...SOUTH FLORIDA AND THE KEYS...

CITY           SKY/WX    TMP DP  RH WIND       PRES   REMARKS
FORT MYERS     PTCLDY    67  66  97 CALM      30.14S
SW REGIONAL AP FOG       64  64 100 CALM      30.15S VSB 1/4
NAPLES         CLEAR    N/A N/A N/A CALM      30.14S FOG
MIAMI          PTCLDY    71  68  90 E3        30.13F
WEST KENDALL   CLEAR     66  64  93 NE3       30.13F FOG
HOMESTEAD      CLEAR     68  67  96 E2        30.12F
MARATHON       CLEAR     75  69  81 E6        30.11S
BOCA CHICA NAS MOCLDY    75  68  78 SE8       30.11F
KEY WEST INTL  CLEAR     76  68  76 SE10      30.11F

...INTERNATIONAL WEATHER...

CITY           SKY/WX    TMP DP  RH WIND       PRES   REMARKS
NASSAU BAHAMAS NOT AVBL
CANCUN MEXICO  PTCLDY    77  72  83 E9        30.03F
COZUMEL MEXICO PTCLDY    68  68 100 CALM      30.03

ADJACENT COASTAL WATERS...

STATION/POSITION TIME  SKY/WX   TEMP    WIND        PRES    WAVE
                                AIR SEA DIR/SP/G            HT/PER
                 (UTC)          (F)     (DEG/KT/KT) (MB)    (FT/S)
PULASKI SHOAL LI 0700            73      90/ 12/ 13 1019.5F
SAND KEY         0739            77     120/ 14/ 17 1019.6F
SOMBRERO KEY     0800            77     110/ 12/ 14 1020.3R
LONG KEY         0700            76 75  120/ 10/ 11 1020.6F
MOLASSES REEF    0800            76 78  150/ 12/ 15 1019.7F
FOWEY ROCKS      NOT AVBL
Buoy 42080       NOT AVBL

$$


USA.gov is the U.S. government's official web portal to all federal, state and local government web resources and services.